Location: Lugrin
(46.4033°N, 6.6674°E)
Time: 06:36:31
(UTC+00:00)

Cosmos 1092 Rocket - Pass Details

Date: 18 September 2020
Orbit: 954 x 995 km, 82.9° (Epoch: 23 October)

Event Time Altitude Azimuth Distance (km) Brightness Sun altitude
Rises 19:49:10 0° 351° (N) 3,645 7.5 -22.5°
Reaches altitude 10° 19:51:40 10° 352° (N) 2,696 6.8 -22.8°
Maximum altitude 19:57:51 86° 81° (E) 969 3.8 -23.8°
Enters shadow 20:00:16 40° 169° (SSE) 1,385 4.5 -24.1°
